STARLINK-1067, 44771

Orbit data source: Space-Track

STARLINK-1067, 44771 is a payload satellite owned by SpaceX/Seattle (US) in LEO that was launched on Mon, 11 Nov 2019 UTC via an FALCON 9 launch vehicle from the Air Force Eastern Test Range (AFETR). Payload-class satellites include a variety of spacecraft equipped with specific instruments for various scientific and technological missions. These include communications satellites like Starlink; space stations such as the ISS; scientific satellites like the Hubble; Earth observation satellites from companies like Planet Labs, Umbra, and HawkEye 360; GPS; miniature CubeSats for education and research; and military/defense satellites.

Loading next visibility...
Identifier
44771, 2019-074BL
Orbit
LEO
Country
Flag of USUS
Related business
Manufacturer
SpaceX/Seattle
Mission
Partially operational Commercial Communications
Bus & Motor
STARLINK, Unknown motor
Mass
260 kg wet, ~248 kg dry
Launch date (UTC)
2019-11-11 (6 years ago)
Launch vehicle
FALCON 9
Launch site
Air Force Eastern Test Range (AFETR)
Object type
Payload
Rocket body
Debris
Shape & HBR
Box + 1 Pan, 10.1 m
Radar Cross Section
13.562 m², Large (>1 m²)

Expand to show TLE details & history
Last TLE update: 2 hours ago

TLE from 2 hours ago
0 STARLINK-1067
1 44771U 19074BL  26127.91668980  .00136738  00000-0  10819-2 0  9998
2 44771  53.0438 274.1865 0004927 262.6207 254.6872 15.70422081  6019
Epoch: 2026-05-07T22:00Z
TLE epoch observation values (Epoch: 2026-05-07T22:00:01.998Z)
Latitude
18.0293°
Longitude
-115.67134°
Altitude
358.894 km
Speed
7.696 km/s
True Right ascension
05h 20m 22s
True Declination
17° 55' 21"
Sunlit
Object was in daylight at epoch
Visualization orbit readout
Latitude
Unknown
Longitude
Unknown
Altitude
Unknown
Speed
Unknown
Apparent Right ascension
Unknown
Apparent Declination
Unknown
Sunlit
N/A
Visualization observer readout
Local Sidereal Time
08:22:34
Azimuth
Unknown
Elevation
Unknown
Doppler factor
Unknown
Orbital elements
Apogee altitude
361.289 km
Perigee altitude
354.651 km
Semi-major axis
6,736.107 km
Eccentricity
0.00049
Inclination
53.0438°
RAAN
274.1865°
Arg. of periapsis
262.6207°
True anomaly
254.63275°
Mean anomaly
254.6872°
Eccentric anomaly
254.65998°
Mean motion
3.92581 °/min
Orbital period
91.7 mins
BSTAR
0.0010819
Loading maneuver chart data...
Computing Atmospheric mass density...

Documentation

Showing up to 5 results
|